This is the latest recevied weather packets stored in our database for station/object K0WXC-1. If no packets are shown the sender has not sent any weather packets the latest 10 day(s).
| Time | Temp. | Humidity | Pressure | Rain* | Wind** | Luminosity | Snow |
|---|---|---|---|---|---|---|---|
| 1777068208 | 20.56° C | 43% | 996.7 hPa | 0 mm | 2.24 m/s, 48° | - | - |
| 1777068148 | 20.56° C | 43% | 996.7 hPa | 0 mm | 2.24 m/s, 48° | - | - |
| 1777068088 | 20.56° C | 43% | 996.7 hPa | 0 mm | 2.24 m/s, 48° | - | - |
| 1777068028 | 20.56° C | 43% | 996.8 hPa | 0 mm | 1.34 m/s, 14° | - | - |
| 1777067968 | 20.56° C | 43% | 996.8 hPa | 0 mm | 1.34 m/s, 14° | - | - |
| 1777067908 | 20.56° C | 43% | 996.8 hPa | 0 mm | 1.34 m/s, 14° | - | - |
| 1777067848 | 20.56° C | 43% | 996.8 hPa | 0 mm | 1.34 m/s, 14° | - | - |
| 1777067788 | 20.56° C | 43% | 996.8 hPa | 0 mm | 1.34 m/s, 14° | - | - |
| 1777067728 | 20.56° C | 42% | 996.8 hPa | 0 mm | 1.79 m/s, 56° | - | - |
| 1777067668 | 20.56° C | 42% | 996.8 hPa | 0 mm | 1.79 m/s, 56° | - | - |
| 1777067609 | 20.56° C | 42% | 996.8 hPa | 0 mm | 1.79 m/s, 56° | - | - |
| 1777067548 | 20.56° C | 42% | 996.8 hPa | 0 mm | 1.79 m/s, 56° | - | - |
| 1777067488 | 20.56° C | 42% | 996.8 hPa | 0 mm | 1.79 m/s, 56° | - | - |
| 1777067428 | 20° C | 46% | 996.6 hPa | 0 mm | 1.34 m/s, 289° | - | - |
| 1777067368 | 20° C | 46% | 996.6 hPa | 0 mm | 1.34 m/s, 289° | - | - |
| 1777067308 | 20° C | 46% | 996.6 hPa | 0 mm | 1.34 m/s, 289° | - | - |
| 1777067248 | 20° C | 46% | 996.6 hPa | 0 mm | 1.34 m/s, 289° | - | - |
| 1777067188 | 20° C | 46% | 996.6 hPa | 0 mm | 1.34 m/s, 289° | - | - |
| 1777067128 | 20° C | 43% | 996.7 hPa | 0 mm | 2.24 m/s, 358° | - | - |
| 1777067068 | 20° C | 43% | 996.7 hPa | 0 mm | 2.24 m/s, 358° | - | - |
| 1777067008 | 20° C | 43% | 996.7 hPa | 0 mm | 2.24 m/s, 358° | - | - |
| 1777066948 | 20° C | 43% | 996.7 hPa | 0 mm | 2.24 m/s, 358° | - | - |
| 1777066888 | 20° C | 43% | 996.7 hPa | 0 mm | 2.24 m/s, 358° | - | - |
| 1777066828 | 20° C | 42% | 996.7 hPa | 0 mm | 2.68 m/s, 11° | - | - |
| 1777066768 | 20° C | 42% | 996.7 hPa | 0 mm | 2.68 m/s, 11° | - | - |
* Rain latest hour (hover to see other rain measurements)
** Current wind speed in m/s (hover to see current wind gust speed)